| time (UTC) | temp F | wind direction | speed knots | gust knots | rain 1hr in | rain 24hr in | rain mn in | humidity % | barometer mb |
| 20260906215504 | 70 | 101 | 6.1 | 13.0 | 0.00 | 1.33 | 1.42 | 79 | 1022.7 |
| 20260906215004 | 70 | 73 | 3.5 | 14.8 | 0.00 | 1.33 | 1.42 | 79 | 1022.7 |
| 20260906214504 | 70 | 75 | 6.1 | 20.0 | 0.00 | 1.33 | 1.42 | 78 | 1022.6 |
| 20260906214004 | 70 | 81 | 7.0 | 20.0 | 0.00 | 1.33 | 1.42 | 77 | 1022.4 |
| 20260906213504 | 71 | 108 | 8.7 | 15.6 | 0.00 | 1.33 | 1.42 | 77 | 1022.2 |
| 20260906212504 | 70 | 108 | 7.8 | 17.4 | 0.00 | 1.33 | 1.42 | 77 | 1022.1 |
| 20260906212004 | 71 | 106 | 8.7 | 15.6 | 0.00 | 1.33 | 1.42 | 76 | 1022.3 |
| 20260906211504 | 71 | 96 | 8.7 | 17.4 | 0.00 | 1.33 | 1.42 | 76 | 1022.2 |
| 20260906211004 | 71 | 89 | 7.0 | 17.4 | 0.00 | 1.33 | 1.42 | 76 | 1022.2 |
| 20260906210504 | 71 | 96 | 7.8 | 15.6 | 0.00 | 1.33 | 1.42 | 76 | 1022.3 |
| 20260906210004 | 70 | 89 | 7.8 | 15.6 | 0.00 | 1.33 | 1.42 | 76 | 1022.4 |
| 20260906205004 | 71 | 101 | 7.8 | 13.0 | 0.00 | 1.33 | 1.42 | 75 | 1022.3 |
| 20260906204504 | 71 | 88 | 6.1 | 13.0 | 0.00 | 1.33 | 1.42 | 76 | 1022.3 |
| 20260906204004 | 71 | 96 | 7.0 | 13.9 | 0.00 | 1.33 | 1.42 | 75 | 1022.4 |
| 20260906203504 | 71 | 75 | 5.2 | 13.9 | 0.00 | 1.33 | 1.42 | 76 | 1022.5 |
| 20260906203004 | 70 | 75 | 6.1 | 13.9 | 0.00 | 1.33 | 1.42 | 77 | 1022.5 |
| 20260906202504 | 70 | 103 | 6.1 | 13.0 | 0.00 | 1.33 | 1.42 | 75 | 1022.7 |
| 20260906202004 | 70 | 92 | 7.8 | 17.4 | 0.00 | 1.33 | 1.42 | 75 | 1022.8 |
| 20260906201504 | 71 | 109 | 6.1 | 17.4 | 0.00 | 1.33 | 1.42 | 75 | 1022.7 |
| 20260906201004 | 71 | 109 | 5.2 | 14.8 | 0.00 | 1.33 | 1.42 | 78 | 1022.4 |
| 20260906200504 | 70 | 110 | 4.3 | 11.3 | 0.00 | 1.33 | 1.42 | 78 | 1022.6 |
| 20260906195504 | 69 | 88 | 5.2 | 11.3 | 0.00 | 1.33 | 1.42 | 77 | 1022.6 |
| 20260906195004 | 69 | 63 | 3.5 | 11.3 | 0.00 | 1.33 | 1.42 | 77 | 1022.5 |
| 20260906194504 | 69 | 95 | 4.3 | 12.2 | 0.00 | 1.33 | 1.42 | 78 | 1022.6 |
| 20260906193504 | 69 | 101 | 6.1 | 13.0 | 0.00 | 1.33 | 1.42 | 77 | 1022.2 |
| 20260906193005 | 69 | 94 | 6.1 | 12.2 | 0.00 | 1.33 | 1.42 | 76 | 1022.0 |
| 20260906192504 | 69 | 100 | 6.1 | 13.0 | 0.00 | 1.33 | 1.42 | 75 | 1022.2 |
| 20260906192004 | 69 | 78 | 7.0 | 13.0 | 0.00 | 1.33 | 1.42 | 74 | 1022.3 |
| 20260906191504 | 69 | 96 | 4.3 | 13.0 | 0.00 | 1.33 | 1.42 | 75 | 1022.5 |
| 20260906191004 | 70 | 89 | 6.1 | 13.9 | 0.00 | 1.33 | 1.42 | 73 | 1022.5 |
| 20260906190504 | 70 | 79 | 6.1 | 13.9 | 0.00 | 1.33 | 1.42 | 72 | 1022.9 |
| 20260906185504 | 70 | 98 | 4.3 | 10.4 | 0.00 | 1.33 | 1.42 | 74 | 1023.1 |
| 20260906185004 | 70 | 72 | 3.5 | 10.4 | 0.00 | 1.33 | 1.42 | 76 | 1023.2 |
| 20260906184504 | 70 | 61 | 2.6 | 8.7 | 0.00 | 1.33 | 1.42 | 78 | 1023.1 |
| 20260906183004 | 69 | 77 | 4.3 | 10.4 | 0.00 | 1.33 | 1.42 | 78 | 1023.6 |
| 20260906182504 | 68 | 71 | 4.3 | 13.0 | 0.00 | 1.33 | 1.42 | 80 | 1023.6 |
| 20260906181504 | 69 | 48 | 4.3 | 13.0 | 0.00 | 1.33 | 1.42 | 82 | 1023.8 |
| 20260906181005 | 67 | 53 | 6.1 | 13.0 | 0.00 | 1.33 | 1.42 | 82 | 1023.8 |
| 20260906180504 | 67 | 59 | 5.2 | 13.0 | 0.00 | 1.33 | 1.42 | 83 | 1024.0 |
| 20260906175504 | 66 | 58 | 6.1 | 11.3 | 0.00 | 1.33 | 1.42 | 82 | 1024.2 |
| 20260906175004 | 66 | 56 | 4.3 | 13.0 | 0.00 | 1.33 | 1.42 | 83 | 1024.3 |
| 20260906174504 | 66 | 62 | 6.1 | 13.0 | 0.00 | 1.33 | 1.42 | 82 | 1024.4 |
| 20260906174004 | 66 | 65 | 5.2 | 12.2 | 0.00 | 1.33 | 1.42 | 82 | 1024.2 |
| 20260906173504 | 66 | 59 | 5.2 | 12.2 | 0.00 | 1.33 | 1.42 | 81 | 1024.3 |
| 20260906173004 | 67 | 66 | 6.1 | 13.0 | 0.00 | 1.33 | 1.42 | 81 | 1024.5 |
| 20260906172504 | 67 | 54 | 6.1 | 13.0 | 0.00 | 1.33 | 1.42 | 81 | 1024.4 |
| 20260906172004 | 67 | 72 | 3.5 | 14.8 | 0.00 | 1.33 | 1.42 | 82 | 1024.0 |
| 20260906171504 | 67 | 64 | 4.3 | 17.4 | 0.00 | 1.33 | 1.42 | 83 | 1023.8 |
| 20260906170503 | 67 | 66 | 6.1 | 15.6 | 0.00 | 1.33 | 1.42 | 82 | 1023.5 |
| 20260906170003 | 66 | 75 | 6.1 | 15.6 | 0.00 | 1.33 | 1.42 | 83 | 1023.4 |
| 20260906165504 | 66 | 61 | 7.0 | 13.9 | 0.00 | 1.33 | 1.42 | 84 | 1023.5 |
| 20260906165004 | 66 | 66 | 7.8 | 13.9 | 0.00 | 1.33 | 1.42 | 83 | 1023.5 |
| 20260906164504 | 66 | 40 | 6.1 | 14.8 | 0.00 | 1.33 | 1.42 | 83 | 1023.4 |
| 20260906164004 | 66 | 27 | 7.8 | 14.8 | 0.00 | 1.33 | 1.42 | 83 | 1023.2 |
| 20260906163004 | 65 | 36 | 6.1 | 12.2 | 0.00 | 1.33 | 1.42 | 85 | 1023.1 |
| 20260906162504 | 65 | 24 | 6.1 | 12.2 | 0.00 | 1.33 | 1.42 | 86 | 1022.9 |
| 20260906162004 | 64 | 40 | 7.0 | 12.2 | 0.00 | 1.33 | 1.42 | 87 | 1023.2 |
| 20260906161504 | 64 | 33 | 5.2 | 13.9 | 0.00 | 1.33 | 1.42 | 88 | 1023.2 |
| 20260906161004 | 64 | 41 | 7.0 | 14.8 | 0.00 | 1.33 | 1.42 | 90 | 1023.5 |
| 20260906155504 | 62 | 48 | 6.1 | 13.9 | 0.00 | 1.33 | 1.42 | 93 | 1024.1 |
| 20260906155004 | 62 | 44 | 6.1 | 13.9 | 0.00 | 1.33 | 1.42 | 94 | 1024.2 |
| 20260906154504 | 61 | 32 | 7.0 | 12.2 | 0.00 | 1.33 | 1.42 | 95 | 1024.3 |
| 20260906154004 | 61 | 36 | 4.3 | 14.8 | 0.00 | 1.33 | 1.42 | 95 | 1024.4 |
| 20260906153504 | 61 | 44 | 7.0 | 19.1 | 0.00 | 1.33 | 1.42 | 95 | 1024.3 |
| 20260906153005 | 61 | 36 | 7.0 | 19.1 | 0.01 | 1.33 | 1.42 | 95 | 1024.1 |
| 20260906152504 | 61 | 36 | 10.4 | 19.1 | 0.03 | 1.33 | 1.42 | 95 | 1023.9 |
| 20260906152004 | 61 | 39 | 9.6 | 15.6 | 0.12 | 1.33 | 1.42 | 95 | 1024.3 |
| 20260906151504 | 61 | 48 | 8.7 | 14.8 | 0.29 | 1.33 | 1.42 | 95 | 1024.7 |
| 20260906151004 | 61 | 17 | 10.4 | 22.6 | 0.90 | 1.33 | 1.42 | 95 | 1025.4 |
| 20260906150504 | 61 | 21 | 7.8 | 22.6 | 1.23 | 1.33 | 1.42 | 95 | 1025.4 |
| 20260906150004 | 62 | 2 | 13.0 | 22.6 | 1.31 | 1.33 | 1.42 | 95 | 1025.5 |
| 20260906145504 | 62 | 32 | 6.1 | 10.4 | 1.32 | 1.33 | 1.42 | 95 | 1025.5 |
| 20260906145004 | 62 | 17 | 5.2 | 10.4 | 1.33 | 1.33 | 1.42 | 95 | 1025.5 |
| 20260906144504 | 62 | 39 | 4.3 | 13.9 | 1.33 | 1.33 | 1.42 | 95 | 1025.0 |
| 20260906144004 | 62 | 43 | 7.8 | 13.9 | 1.33 | 1.33 | 1.42 | 95 | 1024.7 |
| 20260906143504 | 62 | 350 | 8.7 | 13.0 | 1.33 | 1.33 | 1.42 | 95 | 1024.6 |
| 20260906142504 | 62 | 59 | 4.3 | 12.2 | 1.30 | 1.30 | 1.39 | 94 | 1024.3 |
| 20260906142004 | 63 | 47 | 7.8 | 24.3 | 1.21 | 1.21 | 1.30 | 94 | 1024.5 |
| 20260906141504 | 63 | 335 | 7.0 | 33.9 | 1.04 | 1.04 | 1.13 | 99 | 1026.0 |
| 20260906141004 | 63 | 244 | 18.2 | 33.9 | 0.43 | 0.43 | 0.52 | 93 | 1027.0 |
| 20260906140004 | 64 | 261 | 6.1 | 11.3 | 0.02 | 0.02 | 0.11 | 94 | 1025.3 |
| 20260906135504 | 65 | 298 | 2.6 | 7.8 | 0.01 | 0.01 | 0.10 | 94 | 1024.4 |
| 20260906135004 | 65 | 334 | 2.6 | 4.3 | 0.00 | 0.00 | 0.09 | 93 | 1024.2 |
| 20260906134504 | 65 | 332 | 1.7 | 2.6 | 0.00 | 0.00 | 0.09 | 93 | 1024.2 |
| 20260906134004 | 65 | 286 | 1.7 | 2.6 | 0.00 | 0.00 | 0.09 | 93 | 1024.3 |
| 20260906133504 | 65 | 350 | 0.9 | 2.6 | 0.00 | 0.00 | 0.09 | 93 | 1024.4 |
| 20260906132504 | 65 | 90 | 0.9 | 5.2 | 0.09 | 0.00 | 0.09 | 93 | 1024.1 |
| 20260906132004 | 65 | 143 | 0.9 | 6.1 | 0.09 | 0.00 | 0.09 | 93 | 1024.2 |
| 20260906130504 | 64 | 113 | 1.7 | 7.0 | 0.09 | 0.00 | 0.09 | 94 | 1023.8 |
| 20260906130004 | 64 | 123 | 1.7 | 7.0 | 0.09 | 0.00 | 0.09 | 94 | 1023.8 |
| 20260906125504 | 64 | 97 | 2.6 | 7.0 | 0.09 | 0.00 | 0.09 | 94 | 1023.7 |
| 20260906124505 | 64 | 75 | 0.9 | 8.7 | 0.09 | 0.00 | 0.09 | 94 | 1023.6 |
| 20260906123504 | 64 | 77 | 4.3 | 10.4 | 0.00 | 0.00 | 0.00 | 94 | 1023.1 |
| 20260906122504 | 64 | 96 | 4.3 | 10.4 | 0.00 | 0.00 | 0.00 | 94 | 1023.2 |
| 20260906122004 | 64 | 92 | 3.5 | 7.8 | 0.00 | 0.00 | 0.00 | 94 | 1023.5 |
| 20260906121504 | 64 | 94 | 3.5 | 8.7 | 0.00 | 0.00 | 0.00 | 94 | 1023.5 |
| 20260906120504 | 65 | 95 | 1.7 | 6.1 | 0.00 | 0.00 | 0.00 | 95 | 1023.9 |
| 20260906115504 | 65 | 57 | 2.6 | 7.0 | 0.00 | 0.00 | 0.00 | 95 | 1023.9 |
| 20260906115004 | 65 | 46 | 2.6 | 5.2 | 0.00 | 0.00 | 0.00 | 95 | 1023.9 |
| 20260906114504 | 65 | 52 | 2.6 | 5.2 | 0.00 | 0.00 | 0.00 | 95 | 1023.9 |
| 20260906113504 | 64 | 41 | 2.6 | 7.0 | 0.00 | 0.00 | 0.00 | 95 | 1023.8 |
| 20260906113004 | 64 | 34 | 1.7 | 7.0 | 0.00 | 0.00 | 0.00 | 95 | 1023.9 |
| 20260906112004 | 64 | 40 | 2.6 | 8.7 | 0.00 | 0.00 | 0.00 | 95 | 1023.7 |
| 20260906111504 | 64 | 52 | 4.3 | 8.7 | 0.00 | 0.00 | 0.00 | 95 | 1023.6 |
| 20260906111004 | 64 | 54 | 3.5 | 7.8 | 0.00 | 0.00 | 0.00 | 95 | 1023.6 |
| 20260906110004 | 64 | 27 | 2.6 | 8.7 | 0.00 | 0.00 | 0.00 | 95 | 1023.8 |
| 20260906105504 | 64 | 19 | 3.5 | 8.7 | 0.00 | 0.00 | 0.00 | 95 | 1023.6 |
| 20260906105003 | 64 | 32 | 3.5 | 8.7 | 0.00 | 0.00 | 0.00 | 100 | 1023.6 |
| 20260906104504 | 63 | 41 | 3.5 | 7.8 | 0.00 | 0.00 | 0.00 | 96 | 1023.6 |
| 20260906104004 | 63 | 29 | 1.7 | 4.3 | 0.00 | 0.00 | 0.00 | 95 | 1023.5 |
| 20260906103004 | 63 | 29 | 2.6 | 4.3 | 0.00 | 0.00 | 0.00 | 100 | 1023.3 |
| 20260906102504 | 63 | 32 | 2.6 | 4.3 | 0.00 | 0.00 | 0.00 | 95 | 1023.3 |
| 20260906102004 | 62 | 33 | 2.6 | 7.0 | 0.00 | 0.00 | 0.00 | 95 | 1023.4 |
| 20260906101504 | 62 | 34 | 2.6 | 7.0 | 0.00 | 0.00 | 0.00 | 95 | 1023.4 |
| 20260906100504 | 62 | 7 | 3.5 | 6.1 | 0.00 | 0.00 | 0.00 | 95 | 1023.5 |
| 20260906100004 | 62 | 37 | 2.6 | 7.8 | 0.00 | 0.00 | 0.00 | 95 | 1023.5 |
| 20260906095004 | 62 | 0 | 4.3 | 7.8 | 0.00 | 0.00 | 0.00 | 95 | 1023.6 |
| 20260906094504 | 62 | 30 | 2.6 | 7.8 | 0.00 | 0.00 | 0.00 | 95 | 1023.5 |
| 20260906094004 | 62 | 7 | 4.3 | 7.8 | 0.00 | 0.00 | 0.00 | 95 | 1023.6 |
| 20260906093504 | 62 | 357 | 3.5 | 5.2 | 0.00 | 0.00 | 0.00 | 95 | 1023.6 |
| 20260906093004 | 62 | 30 | 1.7 | 4.3 | 0.00 | 0.00 | 0.00 | 95 | 1023.6 |
| 20260906092504 | 62 | 18 | 2.6 | 7.8 | 0.00 | 0.00 | 0.00 | 95 | 1023.7 |
| 20260906092004 | 62 | 33 | 1.7 | 7.8 | 0.00 | 0.00 | 0.00 | 95 | 1023.7 |
| 20260906091504 | 62 | 338 | 2.6 | 7.8 | 0.00 | 0.00 | 0.00 | 94 | 1023.8 |
| 20260906091004 | 63 | 351 | 1.7 | 2.6 | 0.00 | 0.00 | 0.00 | 95 | 1023.7 |
| 20260906090504 | 62 | 30 | 0.9 | 2.6 | 0.00 | 0.00 | 0.00 | 94 | 1023.6 |
| 20260906090004 | 62 | 30 | 0.9 | 2.6 | 0.00 | 0.00 | 0.00 | 94 | 1023.6 |
| 20260906085504 | 62 | 44 | 0.9 | 2.6 | 0.00 | 0.00 | 0.00 | 94 | 1023.6 |
| 20260906085004 | 62 | 44 | 0.9 | 2.6 | 0.00 | 0.00 | 0.00 | 94 | 1023.7 |
| 20260906084504 | 63 | 44 | 1.7 | 4.3 | 0.00 | 0.00 | 0.00 | 94 | 1023.7 |
| 20260906084004 | 63 | 44 | 1.7 | 4.3 | 0.00 | 0.00 | 0.00 | 94 | 1023.7 |
| 20260906083504 | 63 | 31 | 1.7 | 4.3 | 0.00 | 0.00 | 0.00 | 94 | 1023.7 |
| 20260906083004 | 63 | 30 | 1.7 | 4.3 | 0.00 | 0.00 | 0.00 | 94 | 1023.7 |
| 20260906082504 | 63 | 44 | 2.6 | 4.3 | 0.00 | 0.00 | 0.00 | 94 | 1023.7 |
| 20260906082004 | 63 | 9 | 2.6 | 4.3 | 0.00 | 0.00 | 0.00 | 93 | 1023.7 |
| 20260906081504 | 63 | 15 | 1.7 | 4.3 | 0.00 | 0.00 | 0.00 | 94 | 1023.7 |
| 20260906081004 | 63 | 31 | 2.6 | 4.3 | 0.00 | 0.00 | 0.00 | 93 | 1023.8 |
| 20260906080504 | 63 | 30 | 2.6 | 4.3 | 0.00 | 0.00 | 0.00 | 93 | 1023.8 |
| 20260906080004 | 63 | 21 | 2.6 | 6.1 | 0.00 | 0.00 | 0.00 | 93 | 1023.9 |
| 20260906075504 | 63 | 34 | 1.7 | 6.1 | 0.00 | 0.00 | 0.00 | 93 | 1023.9 |
| 20260906074504 | 64 | 26 | 2.6 | 4.3 | 0.00 | 0.00 | 0.00 | 93 | 1024.1 |
| 20260906074004 | 64 | 18 | 2.6 | 5.2 | 0.00 | 0.00 | 0.00 | 93 | 1024.1 |
| 20260906073504 | 64 | 29 | 2.6 | 6.1 | 0.00 | 0.00 | 0.00 | 93 | 1024.1 |
| 20260906073004 | 64 | 17 | 2.6 | 6.1 | 0.00 | 0.00 | 0.00 | 93 | 1024.2 |
| 20260906072004 | 64 | 17 | 3.5 | 7.8 | 0.00 | 0.00 | 0.00 | 93 | 1024.3 |
| 20260906071504 | 64 | 14 | 4.3 | 7.0 | 0.00 | 0.00 | 0.00 | 92 | 1024.4 |
| 20260906071004 | 64 | 25 | 2.6 | 6.1 | 0.00 | 0.00 | 0.00 | 92 | 1024.4 |
| 20260906070504 | 64 | 39 | 2.6 | 6.1 | 0.00 | 0.00 | 0.00 | 92 | 1024.4 |
| 20260906070004 | 65 | 19 | 2.6 | 5.2 | 0.00 | 0.00 | 0.00 | 92 | 1024.4 |
| 20260906065504 | 65 | 22 | 3.5 | 5.2 | 0.00 | 0.00 | 0.00 | 92 | 1024.4 |
| 20260906065004 | 65 | 34 | 2.6 | 6.1 | 0.00 | 0.00 | 0.00 | 92 | 1024.4 |
| 20260906064504 | 65 | 29 | 3.5 | 7.8 | 0.00 | 0.00 | 0.00 | 92 | 1024.4 |
| 20260906064004 | 65 | 55 | 3.5 | 10.4 | 0.00 | 0.00 | 0.00 | 92 | 1024.4 |
| 20260906063504 | 65 | 17 | 2.6 | 10.4 | 0.00 | 0.00 | 0.00 | 91 | 1024.5 |
| 20260906063004 | 65 | 26 | 5.2 | 10.4 | 0.00 | 0.00 | 0.00 | 91 | 1024.5 |
| 20260906062504 | 65 | 30 | 5.2 | 10.4 | 0.00 | 0.00 | 0.00 | 91 | 1024.5 |
| 20260906062004 | 66 | 30 | 5.2 | 10.4 | 0.00 | 0.00 | 0.00 | 91 | 1024.5 |
| 20260906061504 | 66 | 10 | 4.3 | 10.4 | 0.00 | 0.00 | 0.00 | 91 | 1024.5 |
| 20260906060004 | 70 | 36 | 5.2 | 10.4 | 0.00 | 0.00 | 0.00 | 82 | 1024.1 |
| 20260906034503 | 70 | 45 | 4.3 | 13.0 | 0.00 | 0.00 | 0.00 | 82 | 1024.1 |
| 20260906034004 | 71 | 62 | 5.2 | 13.0 | 0.00 | 0.00 | 0.00 | 82 | 1024.0 |
| 20260906033004 | 71 | 37 | 6.1 | 12.2 | 0.00 | 0.00 | 0.00 | 81 | 1024.1 |
| 20260906032503 | 71 | 39 | 6.1 | 12.2 | 0.00 | 0.00 | 0.00 | 82 | 1024.1 |
| 20260906032004 | 71 | 38 | 5.2 | 8.7 | 0.00 | 0.00 | 0.00 | 81 | 1024.0 |
| 20260906031004 | 70 | 28 | 4.3 | 8.7 | 0.00 | 0.00 | 0.00 | 82 | 1024.0 |
| 20260906025504 | 70 | 36 | 4.3 | 11.3 | 0.00 | 0.00 | 0.00 | 82 | 1024.0 |
| 20260906025004 | 70 | 33 | 4.3 | 11.3 | 0.00 | 0.00 | 0.00 | 82 | 1024.0 |
| 20260906024504 | 70 | 27 | 5.2 | 11.3 | 0.00 | 0.00 | 0.00 | 82 | 1024.0 |
| 20260906024004 | 71 | 18 | 4.3 | 8.7 | 0.00 | 0.00 | 0.00 | 81 | 1024.0 |
| 20260906023504 | 71 | 20 | 4.3 | 8.7 | 0.00 | 0.00 | 0.00 | 81 | 1024.0 |
| 20260906023004 | 71 | 25 | 3.5 | 11.3 | 0.00 | 0.00 | 0.00 | 81 | 1023.8 |
| 20260906022503 | 71 | 32 | 3.5 | 11.3 | 0.00 | 0.00 | 0.00 | 81 | 1023.7 |
| 20260906022004 | 71 | 39 | 4.3 | 8.7 | 0.00 | 0.00 | 0.00 | 81 | 1023.6 |
| 20260906021504 | 71 | 26 | 4.3 | 8.7 | 0.00 | 0.00 | 0.00 | 81 | 1023.6 |
| 20260906021004 | 71 | 16 | 4.3 | 11.3 | 0.00 | 0.00 | 0.00 | 81 | 1023.5 |
| 20260906020504 | 71 | 27 | 6.1 | 11.3 | 0.00 | 0.00 | 0.00 | 81 | 1023.4 |
| 20260906020004 | 72 | 18 | 5.2 | 11.3 | 0.00 | 0.00 | 0.00 | 81 | 1023.4 |
| 20260906015504 | 72 | 32 | 5.2 | 10.4 | 0.00 | 0.00 | 0.00 | 81 | 1023.3 |
| 20260906015004 | 72 | 33 | 6.1 | 10.4 | 0.00 | 0.00 | 0.00 | 80 | 1023.3 |
| 20260906014504 | 72 | 14 | 6.1 | 10.4 | 0.00 | 0.00 | 0.00 | 80 | 1023.2 |
| 20260906014004 | 73 | 15 | 6.1 | 10.4 | 0.00 | 0.00 | 0.00 | 79 | 1023.2 |
| 20260906013504 | 73 | 28 | 4.3 | 8.7 | 0.00 | 0.00 | 0.00 | 79 | 1023.2 |
| 20260906013004 | 73 | 21 | 4.3 | 10.4 | 0.00 | 0.00 | 0.00 | 79 | 1023.1 |
| 20260906012504 | 73 | 14 | 6.1 | 10.4 | 0.00 | 0.00 | 0.00 | 78 | 1022.9 |
| 20260906012004 | 74 | 27 | 5.2 | 8.7 | 0.00 | 0.00 | 0.00 | 77 | 1022.7 |
| 20260906011504 | 74 | 9 | 6.1 | 10.4 | 0.00 | 0.00 | 0.00 | 77 | 1022.7 |
| 20260906011004 | 75 | 24 | 5.2 | 11.3 | 0.00 | 0.00 | 0.00 | 77 | 1022.6 |
| 20260906010504 | 75 | 16 | 6.1 | 13.0 | 0.00 | 0.00 | 0.00 | 76 | 1022.6 |
| 20260906010004 | 75 | 32 | 6.1 | 13.0 | 0.00 | 0.00 | 0.00 | 75 | 1022.6 |
| 20260906005004 | 76 | 33 | 7.8 | 13.9 | 0.00 | 0.00 | 0.00 | 74 | 1022.5 |
| 20260906004504 | 76 | 33 | 6.1 | 13.9 | 0.00 | 0.00 | 0.00 | 74 | 1022.4 |
| 20260906004004 | 76 | 34 | 7.8 | 13.0 | 0.00 | 0.00 | 0.00 | 73 | 1022.4 |
| 20260906003504 | 76 | 17 | 7.8 | 12.2 | 0.00 | 0.00 | 0.00 | 73 | 1022.5 |
| 20260906003004 | 77 | 28 | 6.1 | 13.0 | 0.00 | 0.00 | 0.00 | 73 | 1022.5 |
| 20260906002504 | 77 | 38 | 6.1 | 13.0 | 0.00 | 0.00 | 0.00 | 73 | 1022.5 |
| 20260906002005 | 77 | 40 | 7.0 | 13.9 | 0.00 | 0.00 | 0.00 | 72 | 1022.4 |
| 20260906001504 | 78 | 41 | 10.4 | 13.9 | 0.00 | 0.00 | 0.00 | 71 | 1022.5 |
| 20260906001004 | 78 | 28 | 6.1 | 17.4 | 0.00 | 0.00 | 0.00 | 71 | 1022.4 |
| 20260905235504 | 78 | 9 | 7.8 | 14.8 | 0.00 | 0.00 | 0.00 | 69 | 1022.3 |
| 20260905235004 | 78 | 17 | 10.4 | 14.8 | 0.00 | 0.00 | 0.00 | 68 | 1022.4 |
| 20260905234004 | 79 | 13 | 8.7 | 15.6 | 0.00 | 0.00 | 0.00 | 69 | 1022.4 |
| 20260905233504 | 79 | 37 | 7.0 | 15.6 | 0.00 | 0.00 | 0.00 | 67 | 1022.4 |
| 20260905233004 | 79 | 352 | 8.7 | 15.6 | 0.00 | 0.00 | 0.00 | 67 | 1022.3 |
| 20260905232004 | 79 | 6 | 7.8 | 13.9 | 0.00 | 0.00 | 0.00 | 68 | 1022.3 |
| 20260905231504 | 79 | 355 | 5.2 | 15.6 | 0.00 | 0.00 | 0.00 | 67 | 1022.2 |
| 20260905231004 | 79 | 341 | 6.1 | 15.6 | 0.00 | 0.00 | 0.00 | 68 | 1022.1 |
| 20260905230504 | 79 | 2 | 7.8 | 17.4 | 0.00 | 0.00 | 0.00 | 69 | 1022.0 |
| 20260905230004 | 79 | 336 | 10.4 | 17.4 | 0.00 | 0.00 | 0.00 | 68 | 1022.0 |
| 20260905225504 | 79 | 350 | 10.4 | 15.6 | 0.00 | 0.00 | 0.00 | 69 | 1022.0 |
| 20260905225004 | 79 | 8 | 9.6 | 14.8 | 0.00 | 0.00 | 0.00 | 68 | 1022.0 |
| 20260905224504 | 80 | 335 | 10.4 | 14.8 | 0.00 | 0.00 | 0.00 | 68 | 1021.9 |
| 20260905223504 | 80 | 11 | 6.1 | 14.8 | 0.00 | 0.00 | 0.00 | 67 | 1022.0 |
| 20260905222504 | 80 | 357 | 4.3 | 15.6 | 0.00 | 0.00 | 0.00 | 67 | 1022.2 |
| 20260905222004 | 80 | 335 | 8.7 | 15.6 | 0.00 | 0.00 | 0.00 | 66 | 1022.2 |
| 20260905221504 | 80 | 354 | 5.2 | 10.4 | 0.00 | 0.00 | 0.00 | 67 | 1022.2 |
| 20260905221004 | 80 | 355 | 6.1 | 12.2 | 0.00 | 0.00 | 0.00 | 68 | 1022.3 |
| 20260905220504 | 80 | 312 | 3.5 | 13.0 | 0.00 | 0.00 | 0.00 | 67 | 1022.3 |
| 20260905220004 | 79 | 359 | 5.2 | 13.0 | 0.00 | 0.00 | 0.00 | 67 | 1022.3 |